◎C/2001 RX14の軌道と予報位置です



 1月に近日点を通ったあと,10等級で明るく観測されています.眼視全光度は

3月26日に奈良の永島和郎氏が11.6等(星の広場HAL News 034)と報告していま

す.しばらく,この明るさで観測できます.



    C/2001 RX14 (LINEAR)

Epoch 2003 Jan. 1.0 TT = JDT 2452640.5  

T 2003 Jan. 18.70233 TT                                 Nakano

q   2.0575687            (2000.0)            P               Q

z  -0.0007833      Peri.  121.48537     -0.68612366     -0.71674941

 +/-0.0000006      Node    14.16988     +0.36328588     -0.48586725

e   1.0016118      Incl.   30.57426     +0.63028382     -0.50020326

From 2140 observations 2001 Aug. 28-2003 Mar. 29, mean residual 0".55.

   (1/a)org.= +0.000780, (1/a)fut.= +0.000260 (+/-0.000001), Q= 8.

Residuals in seconds of arc 

2001/                     021022 785 (7.1-  1.8+)   030201 232  0.6-  0.0   

010828 699  0.2-  0.1+    021022 785 (7.2-  1.9+)   030201 A02  1.1-  0.1+  

010828 644  0.2-  0.1-    021023 170  0.3-  0.4+    030201 A02  1.3-  0.4-  

010828 699  0.5-  0.3+    021023 170  0.3+  0.7+    030201 A02  1.5-  0.2-  

010828 644  0.0   0.1-    021023 170  0.7+  0.4+    030201 H41  0.1-  0.2+  

010828 699  0.5+  0.4+    021026 213  0.4+  0.1-    030201 H41  0.2-  0.7+  

010828 644  0.1-  0.0     021026 213  0.3+  0.3-    030201 H41  0.5-  0.3+  

010828 699  1.0-  0.3-    021026 232  0.0   0.4+    030201 H41  0.1-  0.4+  

010910 704  0.2+  0.0     021026 232  0.2-  0.3+    030201 J87  0.6-  0.1+  

010910 704  0.2-  1.1-    021026 232  0.5-  0.1+    030201 J87  1.6-  0.0   

010910 704  0.0   0.2-    021026 170  0.4+  0.3+    030201 J87  0.1+  0.2-  

010910 704  0.0   0.6-    021026 170  0.7+  1.0-    030201 A46  0.3+  0.1-  

010910 704  0.3-  0.4-    021026 349  0.4+  0.1-    030201 A46  0.6+  0.0   

010911 704  0.1-  0.5-    021026 349  0.1+  0.2-    030201 A46  0.1+  0.1-  

010911 704  0.1+  0.2-    021026 349  0.2+  0.1-    030201 A46  0.5+  0.1-  

010911 704  0.0   0.1-    021026 349  0.3+  0.3-    030201 A46  0.1+  0.0   

010911 704  0.1-  0.0     021026 349  0.1+  0.1-    030201 A46  0.5+  0.1+  

010911 704  0.0   0.5+    021027 213  0.9-  0.0     030201 A46  0.5+  0.0   

010918 644  0.5-  0.0     021027 213  0.1-  0.2-    030201 A46  0.1+  0.5-  

010918 644  0.6-  0.0     021027 939  0.8-  0.4+    030201 A46  0.3+  0.2-  

010918 644  0.7-  0.0     021027 939  0.4-  0.3+    030201 A46  0.6+  0.2+  

010919 699  0.7+  0.0     021027 939  0.1-  0.5+    030201 A46  0.2+  0.1-  

010919 699  0.1+  0.1+    021027 704 (6.6-  0.0 )   030201 A46  0.5+  0.2+  

010919 699  0.2-  0.0     021027 704 (4.5-  1.1-)   030201 A46  0.4+  0.1+  

010919 699  0.6+  0.0     021027 704 (5.0-  2.3+)   030201 A46  0.2+  0.1-  

010925 704  1.0+  0.0     021027 349  0.4+  0.4-    030201 A46  0.3+  0.1+  

010925 704  0.0   0.1+    021027 349  0.6+  0.2-    030201 235  0.0   0.3+  

010925 704  0.8+  0.8+    021027 349  0.4+  0.3-    030201 048  1.2+  0.0   

010925 704  0.8+  0.7-    021027 349  0.5+  0.4-    030201 048  0.8+  0.0   

010925 704  0.9+  0.1-    021027 349  0.4+  0.4-    030201 048  0.9+  0.1+  

010926 704  0.1-  0.2-    021027 349  0.5+  0.4-    030201 048  0.9+  0.1-  

010926 704  0.4-  0.1-    021028 670  0.3+  0.7-    030201 048  0.8+  0.0   

010926 704  0.8-  0.0     021028 670  1.1+  0.1+    030201 048  0.9+  0.3+  

010926 704  0.7-  0.0     021029 785  0.2-  0.4+    030201 048  0.8+  0.1+  

010926 704  1.3-  0.2+    021029 785  0.6+  0.3+    030201 048  1.0+  0.1+  

011013 699  0.3+  0.4-    021029 785  0.9+  0.5-    030201 048  0.8+  0.0   

011013 699  0.2-  0.0     021029 785  0.8+  0.2-    030201 048  0.8+  0.1+  

011013 699  0.3+  0.0     021029 785  1.0+  0.4+    030201 232  0.7-  0.2+  

011013 699  0.1-  0.3-    021029 340  0.0   0.3+    030201 232  1.1-  0.3+  

011013 644  0.1-  0.3-    021029 340  0.0   0.0     030201 232  1.2-  0.4+  

011013 644  0.3-  0.3-    021029 340  0.1+  0.1+    030202 595  0.5-  0.1-  

011013 644  0.3-  0.0     021030 349  0.3+  0.2-    030202 445  1.3-  1.4+  

011014 678  0.9+  0.8+    021030 349  0.4+  0.2-    030202 595  0.5-  0.0   

011014 678  0.6-  0.7+    021030 349  0.3+  0.1-    030202 445  0.4-  0.1-  

011014 678  0.3+  0.4+    021030 349  0.3+  0.2-    030202 445  0.0   0.8-  

011018 704  0.1+  0.3-    021030 349  0.3+  0.4-    030202 445  0.4+  0.1-  

011018 704  0.1-  0.2-    021101 939  0.8-  0.7+    030202 A02  0.5-  0.3+  

011018 704  0.1-  0.6-    021101 939  0.7-  0.9+    030202 A02  0.6-  0.0   

011018 678  1.0-  1.2-    021101 939  0.7-  0.5+    030202 A02  0.7-  0.1+  

011018 704  0.3-  0.6-    021101 170  0.1+  0.3+    030202 785  1.8+  0.2-  

011018 704  0.9-  0.3-    021101 170  0.2-  0.5+    030202 785  1.3+  0.2-  

011018 678  0.1+  1.4-    021101 170  0.2+  0.4+    030202 H43  0.4+  0.3-  

011018 678  1.2+  0.5-    021101 170  0.2-  0.4+    030202 H43  0.6-  0.4+  

011018 678  0.4-  1.5-    021101 170  0.1+  0.6+    030202 H43  0.5+  1.1+  

011018 678  0.5-  1.5-    021101 349  0.4-  0.2-    030202 H43  0.1-  0.1+  

011018 046  0.4-  1.2-    021101 349  0.5-  0.0     030202 360  1.0+  0.0   

011018 046  0.2-  0.9-    021101 349  0.3-  0.2-    030202 360  0.9+  0.0   

011018 046  1.1-  0.1+    021101 349  0.7-  0.1-    030203 785  0.5+  0.2+  

011018 595  0.0   0.0     021103 349  0.4+  0.1+    030203 785  0.7+  0.2-  

011018 595  0.5-  0.2+    021103 349  0.3+  0.2+    030203 785  0.2+  0.3-  

011018 595  0.4-  0.4+    021103 349  0.5+  0.1+    030203 670  0.4-  0.2-  

011019 422  0.2+  0.8-    021103 349  0.4+  0.2+    030203 670  0.4-  0.1+  

011019 422  0.0   0.0     021103 349  0.5+  0.0     030204 H43  0.4-  0.4+  

011019 046  0.3+  0.2+    021105 204  0.6+  0.4+    030204 H43  0.2+  0.3+  

011019 636  0.4-  0.5-    021105 204  0.3-  0.3+    030204 H43  0.5-  0.5-  

011019 046  0.4+  0.1+    021105 204  0.4+  0.4+    030204 619  0.3+  0.9-  

011019 046  0.4-  0.2+    021105 204  0.7+  0.0     030204 619  0.0   0.1+  

011019 636  0.3+  0.4-    021105 204  1.0+  0.2-    030204 619  0.1+  1.0-  

011019 046  0.3+  0.1-    021105 204  0.7+  0.2-    030205 H43  0.3-  0.1+  

011019 636  1.0+  0.2-    021105 204  1.4+  0.2+    030205 H43  0.2-  0.1+  

011019 636  1.5+  0.4-    021105 204  1.1+  0.4+    030205 235  0.4-  0.7+  

011019 198  0.4+  0.2-    021105 785  0.3+  0.4-    030206 785 (2.0+  0.4-) 

011019 198  0.4+  0.0     021105 785  0.7+  0.3-    030206 785  0.2+  0.2-  

011019 151  0.6-  0.4+    021105 235  1.2-  0.3+    030206 785  0.0   0.3-  

011019 151  0.3-  0.0     021106 340  0.3-  0.4-    030206 785  0.0   0.3+  

011019 151  0.3-  0.1+    021106 340  0.2+  0.3-    030206 785  0.3+  0.7+  

011019 198  0.2+  0.4+    021106 340  0.5+  0.7-    030206 355  0.1-  0.1-  

011019 151  0.2-  0.2+    021107 048  0.0   0.2-    030206 355  0.1-  0.2-  

011019 557  0.2+  0.1-    021107 048  0.0   0.1-    030206 355  0.5-  0.0   

011019 157  0.0   0.4-    021107 048  0.2+  0.1+    030206 235  1.7+  0.5+  

011019 157  0.4-  0.1+    021107 048  0.6+  0.2+    030206 J97  0.2-  0.1-  

011019 157  0.3-  0.7+    021107 785  0.9+  0.3+    030207 235  0.4+  0.1+  

011019 557  0.0   0.2-    021107 785  0.4+  0.0     030208 H41  0.2+  0.1-  

011019 557  0.1+  0.3-    021107 785  1.1+  0.3-    030208 H41  0.0   0.2+  

011020 850  0.4-  0.2+    021107 349  0.6+  0.4-    030208 H41  0.5-  0.4+  

011020 850  0.2-  0.2-    021107 349  0.6+  0.0     030208 H41  0.3-  0.2+  

011020 850  0.0   0.1+    021107 349  0.4+  0.1-    030208 H41  0.2-  0.3+  

011020 642  0.6+  0.1-    021107 349  0.4+  0.0     030208 213  1.9-  0.4+  

011020 642  1.8-  0.0     021107 349  0.4+  0.1-    030208 213  1.3-  0.1+  

011020 642  0.0   0.2-    021108 235  0.3-  0.4+    030208 213  1.2-  0.3-  

011020 850  0.0   0.0     021109 649  0.7+  0.0     030209 939  1.8-  0.6-  

011020 608 (1.0-  4.2-)   021109 649  0.8+  0.0     030209 939 (2.4-  0.7-) 

011020 608 (0.5-  3.5-)   021109 349  0.2+  0.4-    030209 939 (2.7-  0.9-) 

011020 608  0.5-  0.7-    021109 349  0.1-  0.1-    030209 046  0.5+  0.4+  

011020 946  0.1-  0.0     021109 349  0.3+  0.0     030209 046  0.2+  0.6+  

011020 946  0.4+  0.8-    021109 349  0.0   0.1+    030209 046  0.1+  0.6+  

011020 946  0.5+  0.8-    021110 352  0.1-  0.0     030209 046  0.2+  0.8+  

011021 850  0.5-  0.1+    021110 352  1.3-  0.0     030209 046  0.6+  0.5+  

011021 850  0.1-  0.2-    021110 352  0.9-  0.6+    030209 046  0.6+  0.4+  

011021 850  0.3+  0.0     021110 379  0.7+  0.1+    030209 232  0.8-  0.2-  

011021 850  0.0   0.1+    021110 379  0.6+  0.3+    030209 232  1.2-  0.2-  

011021 850  0.3-  0.2-    021110 379  0.5+  0.4-    030209 232  1.5-  0.1-  

011021 850  0.8+  0.7+    021112 340  0.2+  0.2-    030209 785 (9.6-  1.4-) 

011021 850  0.5+  0.1-    021112 340  0.4-  0.4+    030209 785(10.0-  1.8-) 

011021 165 (4.0-  2.7-)   021112 340  0.1-  0.6+    030209 340  0.6-  0.1-  

011021 165  0.8+  1.3-    021112 360  0.9+  0.2-    030209 340  0.1-  0.1+  

011021 165  0.3+  1.8-    021112 379  0.5+  0.0     030209 340  0.7-  0.2+  

011021 165 (2.7+  0.3-)   021112 360  1.1+  0.1-    030210 213  1.3-  0.5-  

011022 850  0.3+  0.1-    021112 379  0.1+  0.1+    030210 213  1.3-  0.4-  

011022 850  0.1-  0.2+    021112 379  0.3+  0.3-    030210 213  0.7-  0.4-  

011022 850  0.3+  0.2+    021113 349  0.1+  0.1+    030211 H43  0.4-  0.1+  

011022 850  0.1-  0.1+    021113 349  0.3+  0.1-    030211 H43  0.3-  0.1+  

011022 850  0.1+  0.2-    021113 349  0.3+  0.0     030211 H43  0.5-  1.6+  

011022 213  1.1-  0.7-    021113 349  0.3+  0.1-    030211 A18  1.0-  0.4+  

011022 213  1.3-  0.6-    021113 349  0.4+  0.1+    030211 A46  0.4+  0.2-  

011022 213  1.0-  0.8-    021114 785  0.4+  0.0     030211 A46  0.6+  0.6-  

011022 118  0.4+  0.0     021114 785  0.0   0.0     030211 A46  0.3+  0.3-  

011022 213  1.4+  0.3-    021116 704 (8.1-  0.6-)   030211 A46  0.6+  0.5-  

011022 118  0.0   0.2-    021116 704 (4.9-  1.2-)   030211 A46  0.3+  0.7-  

